CZ-6A DEB, 56582

Orbit data source: Space-Track

CZ-6A DEB, 56582 is space debris in SSO originally from a launch on Fri, 11 Nov 2022 UTC launched from the Taiyaun Space Center, China (TSC). Debris objects in space refer to the collection of defunct objects orbiting the Earth. Examples of debris include non-operational satellites, rocket bodies, and fragments generated from explosions, collisions, or faulty payload assembly.

Loading next visibility...
Identifier
56582, 2022-151ADE
Orbit
SSO
Country
Flag of CNCN / PRC
Related business
Manufacturer
SAST
Mission
Spacecraft
Bus & Motor
Unknown
Mass
Unknown
Launch date (UTC)
2022-11-11 (3 years ago)
Launch vehicle
Unknown
Launch site
Taiyaun Space Center, China (TSC)
Object type
Payload
Rocket body
Debris
Shape & HBR
Unknown shape, 0.1 m
Radar Cross Section
Small (<0.1 m²)

Expand to show TLE details & history
Last TLE update: 2 days ago

TLE from 2 days ago
0 CZ-6A DEB
1 56582U 22151ADE 25350.47750026  .00001693  00000-0  75024-3 0  9993
2 56582  98.7709   4.9805 0009925 128.4253 231.7818 14.24435986148878
Epoch: 2025-12-16T11:27Z
TLE epoch observation values (Epoch: 2025-12-16T11:27:36.022Z)
Latitude
-0.00004°
Longitude
107.71927°
Altitude
817.727 km
Speed
7.442 km/s
True Right ascension
00h 19m 55s
True Declination
0° 00' 00"
Sunlit
Object was in daylight at epoch
Visualization orbit readout
Latitude
Unknown
Longitude
Unknown
Altitude
Unknown
Speed
Unknown
Apparent Right ascension
Unknown
Apparent Declination
Unknown
Sunlit
N/A
Visualization observer readout
Local Sidereal Time
11:26:49
Azimuth
Unknown
Elevation
Unknown
Doppler factor
Unknown
Orbital elements
Apogee altitude
814.677 km
Perigee altitude
800.413 km
Semi-major axis
7,185.682 km
Eccentricity
0.00099
Inclination
98.7709°
RAAN
4.9805°
Arg. of periapsis
128.4253°
True anomaly
231.69251°
Mean anomaly
231.7818°
Eccentric anomaly
231.73715°
Mean motion
3.56321 °/min
Orbital period
101.03 mins
BSTAR
0.00075024
Loading maneuver chart data...
Computing Atmospheric mass density...
Loading historical data...
Loading historical data...
Loading historical data...
Loading historical data...
Loading historical data...
Loading historical data...
Loading historical data...

Documentation

Showing up to 5 results
|